Flag for Germany Weather past 2 weeks in Wesseling, North Rhine-Westphalia, Germany

Now
61 °F

Overcast.


Feels Like: 61 °F
Forecast: 55 / 62 °F
Wind: 2 mph from East

Location: Koeln / Bonn

Current Time: Sep 21, 2014 at 12:20:40 AM

Latest Report: Sep 21, 2014 at 12:00 AM


Visibility: 7 mi

Pressure: 29.98 "Hg

Humidity: 98%

Dew point: 61 °F

Location of WesselingLocation

Historic Weather in Wesseling — Graph

°F

Wesseling temperature yesterday

Maximum temperature yesterday: 74 °F (at 3:00 PM)
Minimum temperature yesterday: 57 °F (at 6:00 AM)
Average temperature yesterday: 63 °F

Past Weeks' High & Low Weather Summary

 TemperatureHumidityPressure
High76 °F (Sep 17, 5:00 PM)99% (Sep 6, 3:00 AM)30.24 "Hg (Sep 6, 3:00 AM)
Low44 °F (Sep 12, 4:00 AM)51% (Sep 11, 6:00 PM)29.83 "Hg (Sep 18, 6:00 PM)
Average62 °F83%30.02 "Hg
* Reported Sep 5 11:00 PM — Sep 20 11:00 PM, Wesseling, Weather by CustomWeather, © 2014

Note: Actual official high and low records may vary slightly from our data, if they occured in-between our weather recording intervals... More about our weather records

Advertising

Wesseling weather history for previous 24 hours

 ConditionsComfort  
Time TempWeatherWind HumidityBarometerVisibility
11:00 PM
Sep 20
60 °FOvercast.2 mph97%29.98 "Hg9 mi
10:00 PM60 °FOvercast.1 mph98%29.98 "Hg9 mi
9:00 PM61 °FOvercast.1 mph95%29.97 "Hg9 mi
8:00 PM63 °FOvercast.2 mph94%29.96 "Hg11 mi
3:00 PM74 °FThunderstorms. Partly sunny.3 mph71%29.93 "Hg9 mi
2:00 PM71 °FThunderstorms. Partly sunny.1 mph78%29.95 "Hg9 mi
1:00 PM70 °FPartly sunny.1 mph76%29.96 "Hg7 mi
12:00 PM68 °FPartly sunny.1 mph84%29.97 "Hg9 mi
11:00 AM66 °FOvercast.1 mph91%29.96 "Hg9 mi
10:00 AM64 °FPartly sunny.1 mph93%29.96 "Hg12 mi
9:00 AM62 °FOvercast.1 mph96%29.95 "Hg11 mi
8:00 AM59 °FOvercast.1 mph99%29.95 "Hg16 mi
7:00 AM57 °FPassing clouds.1 mph99%29.94 "Hg16 mi
6:00 AM57 °FFog.2 mph98%29.94 "Hg19 mi
5:00 AM59 °FFog.2 mph98%29.93 "Hg19 mi
4:00 AM60 °FFog.2 mph98%29.93 "Hg19 mi
3:00 AM61 °FFog.2 mph96%29.93 "Hg22 mi
2:00 AM62 °FFog.1 mph98%29.93 "Hg22 mi
1:00 AM63 °FFog.3 mph99%29.93 "Hg22 mi
12:00 AM61 °FFog.2 mph99%29.92 "Hg1 mi
Weather by CustomWeather, © 2014

See weather overviewHow to use our weather pages